EW9827 Weather Reports


Display with metric or nautical units.
time (UTC)temp
F
wind
direction
speed
MPH
gust
MPH
rain 1hr
in
rain 24hr
in
rain mn
in
humidity
%
barometer
mb
20180219020507 26 127 0.0 1.0 0.00 0.05 0.05 85 1030.9
20180219015006 26 111 0.0 1.0 0.00 0.05 0.05 85 1031.1
20180219013509 26 132 0.0 3.0 0.00 0.05 0.05 84 1031.2
20180219012005 26 111 0.0 0.0 0.00 0.05 0.05 84 1031.5
20180219010508 27 127 0.0 0.0 0.00 0.05 0.05 83 1031.5
20180219005005 27 127 0.0 0.0 0.00 0.05 0.05 82 1031.7
20180219003506 27 127 0.0 1.0 0.00 0.05 0.05 82 1031.8
20180219002002 27 137 0.0 0.0 0.00 0.05 0.05 82 1031.7
20180218235005 28 147 0.0 1.0 0.00 0.05 0.05 80 1032.0
20180218233500 28 124 0.0 0.0 0.00 0.05 0.05 79 1031.9
20180218232000 29 146 0.0 2.0 0.00 0.05 0.05 78 1032.0
20180218230459 29 134 0.0 4.0 0.00 0.05 0.05 77 1032.0
20180218225000 30 172 0.0 3.0 0.00 0.05 0.05 74 1032.0
20180218223501 31 107 0.0 5.0 0.00 0.05 0.05 73 1031.9
20180218221959 31 151 1.0 4.0 0.00 0.05 0.05 71 1032.0
20180218220457 32 158 0.0 5.0 0.00 0.05 0.05 70 1032.0
20180218214955 32 207 1.0 5.0 0.01 0.05 0.05 68 1032.0
20180218213456 33 128 2.0 9.0 0.01 0.05 0.05 66 1032.0
20180218211953 33 253 4.0 8.0 0.01 0.05 0.05 62 1031.8
20180218210455 34 188 2.0 6.0 0.02 0.05 0.05 62 1031.5
20180218204951 35 202 2.0 8.0 0.02 0.04 0.04 62 1031.1
20180218203450 35 143 4.0 14.0 0.03 0.04 0.04 63 1030.9
20180218202049 35 173 5.0 8.0 0.04 0.04 0.04 62 1030.7
20180218200447 36 161 2.0 5.0 0.03 0.03 0.03 60 1030.7
20180218194946 36 295 0.0 7.0 0.02 0.02 0.02 57 1030.2
20180218193442 35 146 1.0 8.0 0.01 0.01 0.01 59 1030.3
20180218191938 35 238 1.0 6.0 0.00 0.00 0.00 59 1030.1
20180218190435 34 229 1.0 5.0 0.00 0.00 0.00 64 1030.2
20180218184935 33 18 1.0 6.0 0.00 0.00 0.00 65 1030.5
20180218181928 32 320 2.0 7.0 0.00 0.00 0.00 68 1030.4
20180218180424 31 291 4.0 9.0 0.00 0.00 0.00 68 1030.5
20180218174923 31 212 2.0 8.0 0.00 0.00 0.00 71 1030.8
20180218173421 30 282 5.0 10.0 0.00 0.00 0.00 72 1030.7
20180218171919 30 245 2.0 8.0 0.00 0.00 0.00 72 1030.8
20180218170418 30 301 3.0 9.0 0.00 0.00 0.00 72 1030.9
20180218164918 30 311 4.0 11.0 0.00 0.00 0.00 72 1030.9
20180218163413 30 241 4.0 8.0 0.00 0.00 0.00 72 1030.6
20180218161912 28 326 4.0 10.0 0.00 0.00 0.00 77 1030.5
20180218160406 28 278 5.0 11.0 0.00 0.00 0.00 78 1030.6
20180218154903 28 272 6.0 14.0 0.00 0.00 0.00 78 1030.2
20180218153359 27 300 5.0 14.0 0.00 0.00 0.00 79 1029.9
20180218151858 27 291 8.0 17.0 0.00 0.00 0.00 80 1029.9
20180218150358 27 335 6.0 14.0 0.00 0.00 0.00 80 1029.6
20180218144854 26 287 6.0 16.0 0.00 0.00 0.00 83 1029.8
20180218143350 26 290 9.0 18.0 0.00 0.00 0.00 85 1029.5
20180218141849 25 302 6.0 16.0 0.00 0.00 0.00 87 1029.5
20180218140349 25 317 8.0 13.0 0.00 0.00 0.00 88 1029.6
20180218134846 25 307 7.0 13.0 0.00 0.00 0.00 89 1029.6
20180218133346 25 326 7.0 15.0 0.00 0.00 0.00 88 1029.2
20180218131845 25 289 10.0 18.0 0.00 0.00 0.00 88 1029.1
20180218130341 25 278 8.0 15.0 0.00 0.00 0.00 87 1028.9
20180218124838 25 299 9.0 17.0 0.00 0.00 0.00 88 1028.8
20180218123337 25 307 9.0 16.0 0.00 0.00 0.00 89 1028.6
20180218121836 26 301 8.0 15.0 0.00 0.00 0.00 89 1028.1
20180218120329 26 300 8.0 16.0 0.00 0.00 0.00 89 1027.8
20180218114831 26 298 8.0 13.0 0.00 0.00 0.00 89 1027.5
20180218113324 26 293 9.0 18.0 0.00 0.00 0.00 90 1027.2
20180218111825 26 308 8.0 15.0 0.00 0.00 0.00 91 1026.7
20180218110320 26 304 7.0 12.0 0.00 0.00 0.00 92 1026.5
20180218104816 26 299 7.0 15.0 0.00 0.00 0.00 93 1025.9
20180218103312 26 287 7.0 17.0 0.00 0.00 0.00 93 1025.7
20180218101810 25 255 8.0 14.0 0.00 0.00 0.00 93 1025.2
20180218100305 25 280 6.0 0.0 0.00 0.00 0.00 93 1024.7
20180218094805 25 297 8.0 13.0 0.00 0.00 0.00 93 1024.1
20180218093300 26 304 7.0 13.0 0.00 0.00 0.00 93 1023.6
20180218091757 26 292 6.0 12.0 0.00 0.00 0.00 94 1023.1
20180218090253 26 309 4.0 10.0 0.00 0.00 0.00 94 1022.8
20180218084752 26 291 3.0 10.0 0.00 0.00 0.00 95 1022.5
20180218083249 26 285 4.0 11.0 0.00 0.00 0.00 95 1022.1
20180218081757 26 302 5.0 10.0 0.00 0.00 0.00 95 1021.7
20180218080244 26 307 5.0 13.0 0.00 0.00 0.00 95 1021.5
20180218074740 26 288 4.0 9.0 0.00 0.00 0.00 95 1021.1
20180218073236 26 297 5.0 13.0 0.00 0.00 0.00 95 1020.7
20180218071733 26 290 6.0 12.0 0.00 0.00 0.00 95 1020.3
20180218070234 26 283 3.0 10.0 0.00 0.00 0.00 96 1020.1
20180218064732 26 249 6.0 11.0 0.00 0.00 0.00 96 1019.8
20180218063229 26 278 6.0 12.0 0.00 0.00 0.00 96 1019.5
20180218061724 26 297 5.0 10.0 0.00 0.00 0.00 96 1019.1
20180218060222 26 283 3.0 9.0 0.00 0.00 0.00 96 1018.8
20180218054720 26 279 4.0 13.0 0.00 0.00 0.00 96 1018.7
20180218053218 26 307 6.0 11.0 0.00 0.00 0.00 96 1018.5
20180218051715 26 287 4.0 12.0 0.00 0.00 0.00 96 1018.5
20180218050216 26 311 5.0 12.0 0.00 0.00 0.00 96 1018.5
20180218044714 26 288 5.0 11.0 0.00 0.00 0.00 96 1018.2
20180218043210 27 288 5.0 9.0 0.00 0.00 0.00 96 1018.3
20180218041713 26 295 0.0 2.0 0.00 0.00 0.00 96 1018.2
20180218040212 26 264 0.0 2.0 0.00 0.00 0.00 96 1018.2
20180218034714 26 116 0.0 2.0 0.00 0.00 0.00 96 1018.4
20180218033207 26 266 0.0 3.0 0.00 0.00 0.00 96 1018.6
20180218031708 26 143 0.0 3.0 0.00 0.00 0.00 96 1018.5
20180218030209 26 219 1.0 5.0 0.00 0.00 0.00 96 1018.6
20180218024706 26 205 0.0 7.0 0.00 0.00 0.00 96 1018.8
20180218023204 25 193 1.0 4.0 0.00 0.00 0.00 96 1018.9
20180218021708 25 147 1.0 4.0 0.00 0.00 0.00 95 1019.0